Home   Weather   Bridlington   Past weeks

Flag for United Kingdom Past Weather in Bridlington, England, United Kingdom — Yesterday and Last 2 Weeks

Now
33 °F

Chilly.


Feels Like: 24 °F
Forecast: 33 / 40 °F
Wind: 10 mph from Northwest

Location: Bridlington Mrsc

Current Time: Jan 23, 2017 at 8:57:39 am

Latest Report: Jan 23, 2017 at 8:00 am


Visibility: N/A

Pressure: 30.29 "Hg

Humidity: 83%

Dew Point: 28 °F

Location of BridlingtonLocation

Past Weather in Bridlington — Graph

°F

Bridlington Temperature Yesterday

Maximum temperature yesterday: 41 °F (at 12:00 am)
Minimum temperature yesterday: 29 °F (at 9:00 am)
Average temperature yesterday: 35 °F

High & Low Weather Summary for the Past Weeks

 TemperatureHumidityPressure
High52 °F (Jan 11, 5:00 am)100% (Jan 15, 10:00 pm)30.64 "Hg (Jan 15, 10:00 pm)
Low29 °F (Jan 22, 9:00 am)58% (Jan 11, 2:00 pm)29.32 "Hg (Jan 12, 9:00 pm)
Average40 °F87%30.16 "Hg
* Reported Jan 8 7:00 am — Jan 23 7:00 am, Bridlington, Weather by CustomWeather, © 2017

Note: Actual official high and low records may vary slightly from our data, if they occured in-between our weather recording intervals... More about our weather records

Advertising

Bridlington Weather History for the Previous 24 Hours

Scroll right to see more
 ConditionsComfort  
Time TempWeatherWind HumidityBarometerVisibility
7:00 am
Mon, Jan 23
32 °FChilly.10 mph87%30.29 "HgN/A
6:00 am31 °FChilly.9 mph92%30.29 "HgN/A
5:00 am31 °FChilly.7 mph96%30.29 "HgN/A
4:00 am31 °FChilly.7 mph97%30.29 "HgN/A
3:00 am31 °FChilly.7 mph97%30.30 "HgN/A
2:00 am32 °FChilly.7 mph97%30.31 "HgN/A
1:00 am32 °FChilly.6 mph96%30.30 "HgN/A
12:00 am33 °FChilly.1 mph93%30.31 "HgN/A
11:00 pm
Sun, Jan 22
35 °FChilly.3 mph93%30.31 "HgN/A
10:00 pm35 °FChilly.2 mph93%30.30 "HgN/A
9:00 pm36 °FChilly.5 mph92%30.30 "HgN/A
8:00 pm36 °FChilly.2 mph91%30.30 "HgN/A
7:00 pm36 °FChilly.5 mph91%30.29 "HgN/A
6:00 pm36 °FChilly.3 mph90%30.29 "HgN/A
5:00 pm36 °FChilly.3 mph90%30.29 "HgN/A
4:00 pm36 °FChilly.2 mph88%30.27 "HgN/A
3:00 pm36 °FChilly.5 mph87%30.28 "HgN/A
2:00 pm37 °FChilly.5 mph82%30.28 "HgN/A
1:00 pm36 °FChilly.7 mph79%30.27 "HgN/A
12:00 pm35 °FChilly.7 mph84%30.29 "HgN/A
11:00 am35 °FChilly.7 mph87%30.29 "HgN/A
10:00 am30 °FChilly.2 mph99%30.29 "HgN/A
9:00 am29 °FChilly.3 mph99%30.28 "HgN/A
8:00 am30 °FChilly.6 mph96%30.27 "HgN/A
Weather by CustomWeather, © 2017

See weather overviewHow to use our weather pages